EHI
0 0 0 0 0 0 0 0 0 0 0 0 0 0 0 0 0 0 0 0 0 0 0 0 0 0 0 0 0 0 0 0 0 0 0 0 0 0
0 0 0 0 0 0 0 0 0 0 0 0 0 0 0 0 0 0 0 0 0 0 0 0 0 0 0 0 0 0 0 0 0 0 0 0 0 0
0 0 0 0 0 0 0 0 0 0 0 0 0 0 0 0 0 0 0 0 0 0 0 0 0 0 0 0 0 0 0 0 0 0 0 0 0 0
0 0 0 0 0 0 0 0 0 0 0 0 0 0 0 0 0 0 0 0 0 0 0 0 0 0 0 0 0 0 0 0 0 0 0 0 0 0
0 0 0 0 0 0 0 0 0 0 0 0 0 0 0 0 0 0 0 0 0 0 0 0 0 0 0 0 0 0 0 0 0 0 0 0 0 0
0 0 0 0 0 0 0 0 0 0 0 0 0 0 0 0 0 0 0 0 0 0 0 0 0 0 0 0 0 0 0 0 0 0 0 0 0 0
0 0 0 0 0 0 0 0 0 0 0 0 0 0 0 0 0 0 0 0 0 0 0 0 0 0 0 0 0 0 0 0 0 0 0 0 0 0
0 0 0 0 0 0 0 0 0 0 0 0 0 0 0 0 0 0 0 0 0 0 0 0 0 0 0 0 0 0 0 0 0 0 0 0 0 0
0 0 0 0 0 0 0 0 0 0 0 0 0 0 0 0 0 0 0 0 0 0 0 0 0 0 0 0 0 0 0 0 0 0 0 0 0 0
0 0 0 0 0 0 0 0 0 0 0 0 0 0 0 0 0 0 0 0 0 0 0 0 0 0 0 0 0 0 0 0 0 0 0 0 0 0
0 0 0 0 0 0 0 0 0 0 0 0 0 0 0 0 0 0 0 0 0 0 0 0 0 0 0 0 0 0 0 0 0 0 0 0 0 0
0 0 0 0 0 0 0 0 0 0 0 0 0 0 0 0 0 0 0 0 0 0 0 0 0 0 0 0 0 0 0 0 0 0 0 0 0 0
0 0 0 0 0 0 0 0 0 0 0 0 0 0 0 0 0 0 0 0 0 0 0 0 0 0 0 0 0 0 0 0 0 0 0 0 0 0
0 0 0 0 0 0 0 0 0 0 0 0 0 0 0 0 0 0 0 0 0 0 0 0 0 0 0 0 0 0 0 0 0 0 0 0 0 0
0 0 0 0 0 0 0 0 0 0 0 0 0 0 0 0 0 0 0 0 0 0 0 0 0 0 0 0 0 0 0 0 0 0 0 0 0 0
0 0 0 0 0 0 0 0 0 0 0 0 0 0 0 0 0 0 0 0 0 0 0 0 0 0 0 0 0 0 0 0 0 0 0 0 0 0
0 0 0 0 0 0 0 0 0 0 0 0 0 0 0 0 0 0 0 0 0 0 0 0 0 0 0 0 0 0 0 0 0 0 0 0 0 0
0 0 0 0 0 0 0 0 0 0 0 0 0 0 0 0 0 0 0 0 0 0 0 0 0 0 0 0 0 0 0 0 0 0 0 0 0 0
0 0 0 0 0 0 0 0 0 0 0 0 0 0 0 0 0 0 0 0 0 0 0 0 0 0 0 0 0 0 0 0 0 0 0 0 0 0
0 0 0 0 0 0 0 0 0 0 0 0 0 0 0 0 0 0 0 0 0 0 0 0 0 0 0 0 0 0 0 0 0 0 0 0 0 0
0 0 0 0 0 0 0 0 0 0 0 0 0 0 0 0 0 0 0 0 0 0 0 0 0 0 0 0 0 0 0 0 0 0 0 0 0 0
0 0 0 0 0 0 0 0 0 0 0 0 0 0 0 0 0 0 0 0 0 0 0 0 0 0 0 0 0 0 0 0 0 0 0 0 0 0
0 0 0 0 0 0 0 0 0 0 0 0 0 0 0 0 0 0 0 0 0 0 0 0 0 0 0 0 0 0 0 0 0 0 0 0 0 0
Wind_Speed
8 8 6 5 5 5 5 4 3 2 2 2 1 2 2 3 4 4 3 4 5 7 8 8 9 9 10 10 10 9 9 8 7 6 4 2 2 4
6 7 7 5 5 5 5 5 5 4 3 2 1 0 2 2 4 4 5 8 9 9 10 11 12 13 13 13 13 12 12 11 10 9 8 7 5 4
6 7 8 7 6 6 5 6 6 5 5 3 1 1 2 3 4 5 5 5 6 10 12 13 14 14 14 14 13 13 13 12 12 12 12 11 10 10
5 6 7 6 8 6 6 7 6 6 5 5 2 2 2 4 6 6 5 5 6 10 12 13 14 14 14 14 14 13 13 13 13 13 14 14 14 15
4 5 6 6 8 6 7 7 6 5 5 4 3 2 2 4 6 6 7 6 6 9 12 13 14 14 14 15 15 14 13 13 14 14 14 15 16 17
5 5 5 7 8 8 7 8 7 6 6 5 4 3 3 5 6 6 6 5 5 6 8 9 13 15 15 16 16 16 15 14 15 15 15 16 16 17
6 6 6 8 10 8 7 8 8 7 6 6 5 5 5 6 6 5 7 7 5 4 6 6 7 8 9 13 15 17 16 15 15 16 16 16 16 16
6 6 6 8 10 11 13 12 12 10 9 8 7 7 8 7 7 9 9 8 5 4 5 5 5 7 6 7 11 15 15 15 15 15 15 15 15 15
7 6 5 5 7 7 9 12 13 14 12 10 9 10 10 11 12 12 10 6 5 7 6 6 5 7 6 7 11 13 13 14 14 15 14 14 14 14
8 7 7 6 6 6 6 8 8 10 12 11 10 9 9 12 13 12 12 9 9 5 3 6 4 5 5 6 9 11 12 12 13 13 13 13 13 13
7 7 7 7 8 8 8 8 8 8 9 12 11 10 13 16 15 13 12 12 10 5 2 5 5 5 4 4 5 8 10 10 11 11 11 12 12 10
5 5 7 8 7 8 8 8 9 8 7 8 9 11 13 17 20 16 15 14 12 7 4 5 7 6 5 3 3 4 5 7 8 9 9 9 8 6
5 4 5 7 8 8 9 8 8 7 7 8 8 9 10 12 12 10 10 13 13 7 9 7 7 4 5 6 4 4 4 4 4 5 6 7 6 4
6 5 4 6 7 7 7 7 9 9 6 7 8 9 10 11 10 10 9 7 5 8 11 9 7 6 7 7 6 5 4 4 4 4 4 5 4 3
5 6 6 5 5 5 6 8 9 8 7 7 8 8 8 10 10 9 9 8 9 8 8 6 9 7 7 7 7 6 5 4 4 4 4 4 4 4
5 5 5 4 3 3 3 5 6 6 7 7 7 8 9 10 10 10 10 9 8 6 4 4 8 10 7 6 8 7 6 6 5 4 4 3 3 4
6 3 3 3 3 3 3 4 4 5 6 7 9 10 10 9 9 8 8 8 7 8 7 4 5 5 4 6 7 7 6 4 4 5 4 4 4 5
7 4 4 4 4 4 4 4 4 5 7 9 10 10 10 10 9 8 8 8 8 7 7 6 7 5 3 3 2 7 7 5 4 5 4 4 4 4
5 4 5 5 4 4 4 4 4 5 6 8 10 10 10 10 10 10 9 8 7 8 8 8 9 8 8 6 3 3 7 5 5 5 4 4 4 3
4 4 5 5 4 4 4 4 5 6 7 8 9 9 9 9 9 9 9 9 8 7 7 7 9 9 8 8 6 4 6 6 6 6 5 3 2 1
4 4 4 4 4 4 4 5 6 7 8 8 9 9 9 9 9 8 8 10 8 7 9 8 5 5 5 6 5 4 4 4 5 5 6 4 3 3
4 4 4 4 4 4 5 6 7 7 8 8 9 9 8 8 9 10 9 9 7 7 7 5 6 5 4 5 6 5 5 5 4 4 5 6 5 6
3 3 3 4 5 5 5 7 8 7 7 8 9 8 9 8 8 8 8 8 7 8 8 6 5 3 3 4 5 4 6 6 5 5 6 10 12 11
Wind_Direction
209 204 202 200 195 198 195 190 197 236 269 271 300 34 37 28 19 26 37 82 114 122 124 125 126 126 126 125 122 120 115 112 110 109 117 127 190 225
213 208 210 203 196 195 196 198 200 207 238 243 241 42 52 59 55 58 67 76 83 99 108 111 108 108 109 109 109 110 107 105 102 100 95 90 84 82
224 217 218 206 200 196 191 192 198 202 230 240 218 175 140 121 95 83 74 71 80 90 99 103 104 105 105 105 104 103 102 101 99 95 90 85 80 78
244 226 224 214 211 199 192 196 197 200 212 229 214 184 165 145 124 106 89 80 81 89 96 101 102 103 103 102 100 98 97 97 95 92 88 84 81 79
249 244 234 219 219 206 198 199 197 194 199 211 212 186 154 145 129 109 99 92 87 92 92 97 101 104 104 104 102 98 95 93 90 87 84 82 81 81
223 238 244 228 225 213 204 202 191 188 193 205 209 197 169 152 141 132 120 103 95 92 90 95 101 101 104 107 108 104 99 95 92 88 85 82 80 80
226 223 233 241 238 222 206 198 188 190 192 201 201 193 177 165 156 142 132 116 91 99 102 92 95 95 97 104 107 108 103 99 96 93 90 87 84 82
235 234 235 243 243 233 221 204 192 191 195 198 200 198 186 167 152 147 142 141 128 134 111 90 92 94 92 99 107 108 105 102 100 97 94 91 87 84
232 236 245 239 237 230 224 213 207 204 199 198 201 200 184 170 159 157 157 147 131 147 128 102 94 90 89 98 105 106 106 105 103 101 97 94 90 88
231 231 236 246 237 226 216 215 214 213 212 213 215 204 186 171 166 154 142 116 108 125 123 115 115 99 96 96 101 106 107 108 107 106 103 99 95 90
232 231 230 240 240 225 217 215 216 219 217 215 213 198 172 161 151 141 141 139 138 141 124 115 130 114 100 96 101 108 111 112 113 113 111 106 101 95
230 229 231 234 238 221 218 214 217 213 195 195 195 181 168 159 158 158 155 152 147 146 164 132 148 137 120 117 123 125 120 118 121 124 122 118 113 106
220 221 226 227 229 221 218 221 217 198 189 185 176 167 161 161 161 157 157 157 157 150 157 144 156 145 131 140 148 153 149 143 139 139 143 138 131 120
212 215 222 226 226 222 217 223 206 190 186 179 171 164 160 160 157 151 146 142 132 140 153 151 150 155 138 143 152 157 161 160 156 152 154 158 155 135
207 207 211 222 223 222 222 211 194 192 185 178 169 158 150 147 141 133 123 111 102 124 144 151 147 147 148 150 155 159 164 172 178 169 169 175 174 170
196 193 194 204 207 213 203 199 201 194 182 169 149 137 134 139 143 144 144 138 126 122 100 129 151 152 151 149 156 162 169 168 172 180 173 179 185 191
165 165 183 189 202 207 197 186 192 178 163 145 141 140 140 139 141 145 144 144 143 152 147 112 94 88 101 146 159 167 165 163 162 159 169 184 198 201
161 179 193 197 202 203 191 175 181 167 152 145 143 141 143 144 142 144 149 153 150 154 155 147 142 130 112 67 136 168 168 162 153 159 169 187 203 201
178 192 197 200 198 192 188 176 167 154 145 142 140 138 138 142 147 152 157 159 159 158 160 162 167 165 174 179 162 179 172 159 155 164 179 190 206 201
201 204 204 199 192 187 176 163 150 144 139 134 133 134 138 142 147 152 157 159 156 151 156 170 179 180 185 179 161 165 176 164 169 176 177 187 217 258
202 209 201 192 178 171 160 149 145 142 140 136 135 138 141 143 145 149 150 151 153 158 167 173 166 134 109 117 127 147 170 185 168 171 169 177 198 213
192 192 183 177 162 154 147 140 138 137 138 137 138 139 141 143 145 147 150 157 162 159 152 134 136 142 142 160 171 167 165 171 189 193 195 192 187 202
175 175 171 161 148 142 140 137 138 138 140 140 140 142 142 142 144 147 151 152 149 143 135 135 144 149 146 161 172 172 176 178 184 199 224 227 233 246